Location: Newark
(41.6500°N, 71.4833°W)
Time: 18:28:44
(UTC+00:00)

Transit 2A Rocket - Pass Details

Date: 27 January 2020
Orbit: 592 x 911 km, 66.7° (Epoch: 16 February)

Event Time Altitude Azimuth Distance (km) Brightness Sun altitude
Rises 11:06:57 0° 263° (W) 2,825 - -10.7°
Reaches altitude 10° 11:10:29 10° 294° (WNW) 1,927 - -10.0°
Exits shadow 11:11:21 12° 306° (NW) 1,821 6.4 -9.9°
Maximum altitude 11:12:18 12° 320° (NW) 1,784 6.4 -9.7°
Drops below altitude 10° 11:14:08 10° 345° (NNW) 1,951 6.8 -9.4°
Sets 11:17:47 0° 15° (NNE) 2,899 8.0 -8.7°
